Temp
20 21 22 22 21 20 20 19 19 18 17 16 16 16 16 16 16 15 15 15 15 15 15 15 14 14 14 14 14 13 13 13 13 13 13 13 13 13 12 12 12 12 13
19 20 21 20 20 20 19 18 18 17 16 16 15 15 15 15 15 15 14 14 14 14 14 14 14 14 14 14 14 14 13 13 13 12 12 12 12 13 13 12 12 12 12
19 19 19 19 19 19 18 17 15 16 16 15 14 14 14 14 14 14 14 14 14 14 14 14 14 13 13 13 13 13 13 13 13 12 11 10 11 12 13 13 12 12 12
18 19 19 19 17 17 16 16 16 15 15 14 14 14 14 13 13 13 13 13 13 14 14 14 14 13 13 12 12 12 12 12 12 12 12 11 10 11 11 12 12 11 11
19 19 18 17 16 15 15 14 15 14 14 13 13 13 13 13 13 13 13 14 13 13 13 13 12 12 11 11 11 11 12 12 11 10 10 11 10 10 9 9 10 11 11
17 17 16 16 15 14 14 14 14 13 13 14 13 13 13 13 13 13 13 13 13 12 12 12 11 11 11 10 10 10 10 10 9 9 9 9 9 9 9 9 9 9 10
15 15 15 14 14 14 14 14 13 13 13 13 13 14 14 14 14 14 13 13 12 11 11 10 10 10 9 9 9 9 9 9 9 9 9 9 8 8 8 8 9 8 8
13 14 13 14 14 13 14 14 13 14 14 14 14 14 14 14 13 13 13 12 11 10 10 10 10 10 9 9 8 8 8 8 8 8 8 8 8 7 7 7 7 7 8
13 13 13 14 13 13 13 13 13 13 13 13 13 13 13 13 12 11 10 10 10 9 9 9 8 8 8 8 8 7 7 8 8 8 8 8 8 8 8 7 5 5 5
12 12 13 13 13 13 13 13 13 13 12 12 12 11 11 11 11 10 10 9 9 9 8 7 7 7 7 7 7 7 7 7 7 7 7 7 7 7 7 6 6 3 4
11 12 12 12 12 12 12 12 12 12 11 11 10 10 10 9 9 9 8 8 7 7 7 6 6 6 6 7 7 7 6 6 6 6 6 6 6 5 5 4 2 2 2
12 13 12 12 11 11 12 12 11 11 10 10 10 9 9 8 8 8 7 7 7 6 6 6 5 5 5 6 6 6 5 5 5 5 5 4 4 4 3 3 3 -0 0
10 12 12 11 11 11 11 11 10 10 9 9 9 9 8 8 8 7 7 6 6 5 5 5 4 5 6 5 5 4 4 4 3 3 3 3 3 2 1 0 -1 -2 -1
12 12 12 12 12 11 11 10 10 9 9 9 9 8 8 7 7 6 5 5 5 5 4 5 5 4 3 3 3 3 3 3 3 2 2 2 2 2 1 1 -0 -1 -2
13 13 12 12 11 11 10 10 10 9 9 9 8 7 7 6 5 5 5 4 4 4 4 3 3 3 3 3 3 2 2 2 2 1 1 1 1 1 0 -0 0 -1 -2
11 12 12 11 11 11 10 9 9 9 8 8 7 6 6 5 5 5 4 3 1 1 1 1 2 2 2 2 2 2 1 1 1 1 0 0 1 0 -0 -0 -1 -2 -2
11 12 12 11 11 10 10 9 9 8 8 7 6 6 6 6 5 4 3 1 1 1 1 1 1 1 2 1 1 1 1 1 0 -0 -0 -0 -1 -1 -1 -2 -2 -2 -2
11 12 12 11 10 10 9 9 9 8 7 6 6 6 6 5 5 3 2 2 2 1 1 1 -0 -1 0 1 1 1 0 -0 -1 -1 -1 -2 -2 -2 -2 -2 -4 -3 -2
12 12 12 11 10 9 9 8 8 8 7 7 6 6 6 4 3 2 2 1 1 1 0 -1 -2 -1 -1 -0 0 0 -0 -1 -1 -2 -2 -2 -3 -3 -3 -5 -5 -3 -3
11 12 11 10 9 9 9 8 7 7 7 7 6 6 5 4 3 2 1 1 0 -0 -1 -2 -2 -2 -2 -1 -1 -1 -1 -1 -2 -2 -3 -3 -4 -4 -4 -5 -5 -4 -4
11 12 11 10 9 9 8 7 7 7 7 7 6 5 5 4 3 2 1 1 0 -0 -1 -2 -2 -2 -2 -3 -2 -1 -1 -2 -3 -3 -4 -4 -4 -4 -5 -6 -5 -5 -5
11 11 10 9 9 8 8 7 7 7 6 6 5 5 4 4 3 2 0 1 0 0 -0 -1 -0 -2 -2 -3 -3 -2 -2 -3 -3 -4 -5 -5 -5 -5 -5 -6 -6 -6 -6
10 10 9 9 8 8 8 8 7 6 6 5 5 4 4 3 3 2 -0 -0 -0 -0 -0 -1 -1 -1 -1 -2 -2 -2 -3 -3 -4 -5 -5 -5 -5 -5 -6 -5 -6 -6 -7
9 9 9 8 8 8 8 8 7 6 6 5 4 4 3 3 3 2 -0 -1 -1 -1 -1 -1 -1 -1 -2 -2 -2 -3 -4 -4 -4 -5 -6 -6 -6 -6 -7 -6 -6 -6 -6
9 9 8 8 8 7 7 7 6 6 5 4 4 3 3 3 3 2 1 -1 -1 -1 -1 -1 -1 -2 -2 -2 -3 -4 -4 -4 -5 -6 -6 -6 -6 -7 -7 -7 -7 -7 -7
8 8 8 7 7 7 6 6 5 5 4 4 3 3 3 2 2 2 0 -1 -1 -1 -1 -1 -1 -2 -2 -3 -3 -4 -5 -5 -5 -6 -6 -6 -6 -7 -8 -7 -8 -8 -8
Height
1453 1456 1457 1460 1465 1470 1475 1478 1479 1485 1488 1493 1496 1499 1502 1504 1505 1507 1508 1510 1512 1514 1515 1517 1517 1519 1519 1520 1521 1521 1521 1521 1522 1522 1521 1520 1519 1518 1517 1517 1518 1518 1518
1448 1451 1453 1455 1459 1464 1469 1474 1476 1481 1485 1490 1493 1495 1499 1500 1501 1503 1505 1507 1508 1510 1512 1514 1513 1514 1514 1515 1516 1515 1515 1515 1516 1516 1515 1513 1511 1511 1509 1510 1510 1511 1512
1442 1447 1449 1452 1455 1460 1465 1468 1474 1479 1483 1487 1489 1492 1494 1496 1497 1498 1501 1503 1504 1506 1507 1509 1510 1510 1510 1510 1511 1511 1511 1510 1511 1512 1512 1508 1505 1505 1504 1501 1501 1502 1501
1441 1442 1445 1450 1454 1457 1461 1464 1470 1476 1481 1484 1486 1489 1490 1492 1494 1496 1498 1500 1502 1504 1505 1505 1505 1506 1505 1506 1507 1507 1506 1506 1505 1506 1505 1504 1502 1502 1498 1497 1496 1496 1495
1433 1438 1442 1446 1451 1454 1458 1461 1466 1472 1477 1481 1485 1487 1489 1492 1494 1496 1497 1499 1500 1500 1501 1501 1502 1503 1503 1503 1503 1502 1502 1502 1501 1500 1499 1499 1498 1498 1497 1490 1491 1490 1487
1428 1434 1439 1441 1445 1452 1456 1460 1462 1469 1474 1479 1482 1486 1488 1490 1493 1495 1496 1497 1497 1497 1497 1497 1498 1497 1497 1497 1497 1497 1497 1496 1496 1496 1495 1493 1494 1491 1489 1485 1482 1480 1479
1423 1426 1432 1435 1441 1447 1453 1458 1461 1466 1472 1477 1480 1483 1486 1489 1490 1492 1493 1493 1494 1494 1494 1494 1494 1494 1494 1494 1494 1494 1493 1492 1491 1490 1489 1488 1487 1486 1484 1482 1474 1473 1470
1420 1427 1430 1433 1437 1444 1451 1455 1459 1463 1469 1474 1478 1481 1483 1485 1486 1487 1488 1488 1489 1489 1490 1491 1492 1491 1491 1489 1489 1488 1488 1486 1486 1485 1484 1482 1481 1480 1479 1476 1472 1466 1462
1413 1418 1427 1432 1436 1442 1447 1454 1457 1461 1467 1472 1475 1478 1480 1482 1483 1484 1485 1485 1485 1485 1485 1485 1485 1486 1486 1485 1483 1482 1482 1481 1480 1479 1478 1476 1475 1473 1471 1468 1468 1466 1457
1408 1417 1426 1428 1435 1443 1447 1454 1455 1460 1465 1469 1472 1475 1477 1478 1479 1480 1481 1481 1482 1481 1482 1482 1482 1481 1480 1480 1478 1476 1475 1474 1474 1472 1471 1470 1467 1465 1463 1460 1457 1455 1453
1402 1412 1421 1429 1434 1440 1445 1450 1454 1459 1464 1467 1470 1472 1474 1475 1476 1476 1476 1477 1477 1477 1477 1478 1477 1476 1474 1473 1472 1472 1471 1469 1467 1465 1462 1461 1457 1455 1452 1450 1447 1445 1444
1396 1407 1417 1423 1432 1436 1441 1445 1450 1457 1461 1464 1467 1469 1470 1471 1472 1472 1472 1472 1472 1473 1472 1472 1473 1471 1469 1467 1466 1465 1463 1462 1460 1457 1455 1452 1451 1448 1443 1441 1438 1434 1433
1402 1409 1417 1423 1428 1433 1438 1442 1448 1454 1457 1461 1464 1466 1467 1468 1469 1468 1468 1468 1469 1469 1469 1468 1467 1466 1464 1463 1462 1460 1458 1456 1455 1451 1447 1445 1443 1439 1435 1432 1429 1426 1421
1401 1408 1415 1418 1423 1428 1433 1438 1444 1449 1453 1457 1459 1462 1463 1464 1465 1464 1463 1464 1464 1464 1463 1462 1460 1459 1458 1458 1457 1455 1454 1451 1449 1446 1443 1440 1437 1434 1429 1425 1421 1418 1413
1398 1401 1404 1412 1419 1424 1429 1435 1440 1445 1448 1452 1454 1456 1458 1459 1459 1458 1457 1458 1458 1458 1458 1458 1456 1454 1453 1452 1452 1451 1450 1448 1447 1445 1441 1438 1435 1431 1427 1421 1417 1412 1407
1388 1396 1402 1408 1414 1419 1425 1431 1437 1441 1446 1449 1450 1452 1453 1453 1452 1452 1452 1452 1451 1452 1453 1452 1452 1452 1451 1451 1450 1448 1447 1446 1444 1441 1439 1436 1432 1428 1424 1420 1416 1411 1404
1379 1386 1392 1400 1408 1414 1420 1427 1433 1438 1443 1445 1447 1448 1448 1449 1448 1448 1449 1449 1449 1450 1449 1449 1449 1448 1448 1447 1447 1444 1444 1442 1440 1439 1436 1433 1429 1425 1421 1417 1414 1409 1404
1372 1380 1387 1395 1402 1409 1415 1421 1428 1433 1437 1440 1441 1442 1445 1445 1445 1445 1446 1447 1447 1448 1447 1447 1447 1446 1446 1445 1443 1442 1441 1439 1438 1436 1434 1431 1427 1423 1420 1417 1414 1408 1402
1363 1368 1379 1387 1396 1403 1411 1417 1424 1429 1434 1436 1438 1439 1441 1441 1442 1443 1444 1446 1445 1445 1445 1445 1446 1445 1444 1442 1440 1439 1438 1436 1436 1435 1432 1430 1426 1422 1420 1418 1414 1408 1403
1355 1362 1373 1383 1390 1396 1402 1409 1416 1424 1429 1432 1435 1438 1438 1438 1438 1439 1441 1442 1442 1442 1443 1443 1444 1444 1443 1442 1440 1438 1436 1435 1434 1432 1431 1428 1426 1424 1421 1418 1415 1410 1406
1348 1359 1368 1375 1383 1392 1399 1404 1409 1417 1423 1427 1431 1433 1434 1434 1434 1436 1437 1439 1439 1439 1440 1440 1440 1441 1442 1440 1438 1436 1435 1433 1433 1430 1429 1427 1426 1424 1421 1419 1417 1413 1410
1343 1352 1362 1371 1378 1388 1394 1399 1404 1412 1418 1422 1426 1427 1429 1430 1430 1431 1433 1436 1436 1436 1436 1436 1437 1438 1439 1437 1437 1435 1434 1432 1431 1429 1427 1427 1426 1425 1423 1421 1419 1417 1415
1338 1348 1357 1367 1376 1384 1388 1394 1400 1407 1413 1417 1420 1422 1423 1426 1425 1426 1428 1431 1432 1432 1432 1433 1434 1435 1436 1436 1434 1434 1433 1431 1429 1428 1427 1427 1426 1425 1425 1423 1421 1419 1418
1337 1348 1357 1367 1373 1379 1384 1390 1396 1404 1408 1410 1415 1418 1419 1420 1420 1420 1423 1425 1426 1427 1427 1429 1431 1432 1433 1433 1432 1431 1430 1430 1428 1427 1426 1426 1427 1425 1425 1424 1423 1421 1420
1340 1350 1358 1366 1373 1378 1383 1386 1393 1398 1402 1406 1409 1413 1413 1415 1415 1417 1418 1419 1421 1423 1424 1424 1426 1428 1429 1429 1429 1429 1428 1427 1426 1426 1425 1426 1427 1426 1426 1424 1424 1424 1423
1344 1352 1358 1365 1370 1376 1381 1385 1390 1394 1398 1401 1405 1406 1408 1409 1412 1413 1412 1414 1415 1417 1419 1420 1422 1423 1423 1424 1425 1425 1425 1424 1424 1424 1424 1425 1426 1426 1426 1425 1425 1425 1425
Wind_Speed
27 23 20 18 19 20 25 30 28 29 31 32 28 26 27 29 27 25 23 23 22 22 22 22 22 22 22 21 26 28 28 30 31 29 32 32 29 30 33 32 32 33 33
29 25 22 19 18 25 28 29 28 30 32 28 28 24 24 23 27 27 25 24 22 22 23 24 24 24 24 24 24 25 29 31 30 32 32 32 33 34 36 37 38 37 37
37 30 26 23 20 22 27 27 26 27 27 23 18 19 18 20 22 22 24 22 21 23 24 25 25 24 25 27 26 27 28 28 30 29 27 10 16 21 31 40 43 42 42
35 35 31 26 24 24 25 26 25 25 21 19 17 15 15 15 14 14 12 12 11 10 9 10 14 18 21 23 22 23 23 24 26 27 28 33 35 17 15 25 35 43 46
43 40 36 33 29 28 26 23 21 17 23 20 19 18 19 16 12 11 10 9 9 10 10 10 11 14 16 17 20 21 23 25 24 28 29 28 31 40 42 35 30 33 40
45 42 39 36 35 31 29 24 22 24 24 21 19 16 16 14 11 9 10 11 12 13 13 14 14 16 17 17 18 19 20 22 24 25 22 23 30 31 32 38 41 43 41
45 47 44 41 36 33 29 25 24 27 23 20 18 16 14 12 10 10 10 11 11 11 13 15 16 18 18 19 20 21 21 22 25 26 28 30 28 25 30 38 42 37 39
41 44 45 42 37 31 27 25 26 25 22 20 17 14 12 9 6 7 8 10 12 14 16 19 20 22 23 22 23 25 26 27 25 25 27 30 31 29 30 31 31 33 36
44 48 45 38 34 32 30 27 24 21 18 15 13 10 7 6 6 6 7 9 12 14 15 16 17 18 20 22 24 23 23 23 24 26 29 30 32 34 35 35 35 31 35
41 46 42 38 34 32 29 24 20 18 15 13 9 6 5 5 6 7 8 10 11 13 15 17 18 19 19 22 22 22 23 23 23 25 27 29 31 34 36 39 40 38 36
42 49 42 37 35 32 28 23 19 17 15 11 9 8 6 6 7 8 10 11 11 13 16 18 19 22 24 25 20 19 20 22 23 24 25 26 28 30 32 34 36 38 36
50 49 45 41 38 32 26 22 19 16 13 10 9 8 8 8 9 10 12 14 15 16 17 19 22 24 27 23 20 20 21 22 22 22 23 24 26 27 27 29 32 34 36
38 45 43 39 35 30 24 21 18 15 12 10 10 11 11 12 12 13 14 15 16 17 19 20 23 26 23 20 18 18 17 18 19 20 21 22 23 25 25 25 26 27 29
47 43 38 36 33 27 24 22 20 17 15 13 13 12 12 12 12 12 13 15 17 20 22 24 23 18 17 16 16 16 17 17 17 18 19 20 21 24 26 28 28 29 29
44 45 44 37 32 28 25 25 22 18 16 14 13 12 12 11 10 11 14 17 19 19 17 14 14 15 15 14 12 12 14 15 15 15 16 17 18 20 23 26 28 29 30
39 43 41 37 34 32 31 28 23 19 16 14 12 11 11 12 14 14 14 12 12 13 12 13 14 14 12 11 11 12 13 13 13 14 14 16 17 18 20 21 22 24 28
44 47 46 41 38 37 33 29 22 17 13 12 11 9 11 13 13 11 11 13 11 13 14 15 14 12 11 9 10 11 11 11 12 14 15 16 17 18 20 21 21 21 21
43 48 46 42 40 38 34 28 22 16 12 9 8 6 8 10 9 7 5 7 10 13 14 15 14 11 8 9 10 9 9 9 11 13 14 15 16 18 20 20 20 19 19
53 54 50 46 44 38 31 25 21 15 10 8 6 5 7 8 6 5 8 9 11 12 12 10 9 10 9 10 11 11 9 9 10 11 12 13 15 16 16 15 16 16 15
50 54 49 48 44 38 32 26 22 17 13 11 7 7 8 8 8 6 8 9 10 10 9 7 7 11 11 11 12 13 12 11 10 10 11 13 14 14 12 11 12 12 12
52 51 51 50 42 35 30 27 23 20 15 18 13 7 5 5 9 10 10 10 11 12 12 8 8 10 11 12 14 14 13 11 8 9 10 10 10 11 10 9 9 9 10
52 53 51 44 36 33 30 26 24 20 21 20 15 11 7 7 8 11 11 13 14 14 14 12 10 11 12 11 15 15 14 11 9 7 7 7 9 8 7 6 6 6 7
56 53 47 38 35 32 27 23 23 28 23 21 19 14 10 8 9 11 13 15 16 14 15 15 14 13 14 14 14 15 15 13 9 6 6 6 6 6 6 5 5 4 6
51 45 40 38 34 28 25 24 28 28 23 22 21 16 11 8 8 9 13 14 16 15 16 16 16 14 14 15 15 15 14 13 9 6 5 6 5 6 6 8 7 6 3
44 39 37 34 29 25 22 23 25 25 25 24 19 16 12 9 9 11 12 13 13 15 16 16 16 15 16 14 12 15 15 13 9 7 7 8 6 5 5 5 5 5 5
39 35 32 29 25 23 25 25 23 22 23 23 20 17 15 13 14 16 12 13 14 15 17 17 17 17 15 13 12 15 14 13 11 9 8 9 7 6 6 4 4 3 3
Wind_Direction
173 184 197 198 177 177 198 204 212 203 201 199 202 212 224 228 234 234 234 237 238 240 241 245 255 264 257 252 251 254 254 257 263 268 270 270 267 261 258 262 266 266 269
176 186 196 201 196 178 188 198 204 201 202 206 208 217 230 234 237 240 240 240 239 241 247 255 259 257 260 259 254 250 255 258 259 264 266 262 268 260 258 256 258 264 266
182 181 182 193 197 188 184 187 189 192 200 205 206 206 211 221 230 235 238 244 249 249 252 252 254 254 258 261 263 259 259 265 267 266 250 260 241 261 259 257 253 255 258
181 183 187 191 193 185 185 189 192 191 187 189 189 199 200 183 183 180 177 194 201 212 232 243 247 253 258 261 272 274 275 275 272 270 268 264 254 264 277 257 260 256 255
193 188 189 185 178 174 174 172 177 179 179 175 173 171 172 174 169 170 191 207 227 242 253 261 263 269 268 264 258 261 263 267 277 277 276 277 277 263 262 270 262 258 258
190 186 181 178 172 173 170 165 162 164 168 183 177 174 173 182 191 205 219 235 249 257 256 251 255 257 262 263 260 260 262 267 275 278 284 282 282 281 267 264 265 261 263
184 184 178 174 171 174 178 176 167 163 173 180 179 183 186 191 199 207 215 225 237 247 251 250 256 263 267 270 274 276 279 279 278 274 276 274 276 287 282 279 277 279 274
179 180 177 174 172 176 182 179 170 164 167 174 178 182 190 201 220 240 249 252 254 253 257 261 266 270 273 272 272 272 273 275 275 273 274 279 283 283 278 277 286 295 283
176 179 179 177 174 177 178 176 168 169 173 176 182 187 202 223 240 250 260 268 270 275 278 280 279 277 280 283 284 284 280 277 277 277 278 277 279 280 280 278 280 281 287
168 174 175 172 170 173 171 174 173 175 179 185 191 205 235 249 257 266 276 276 278 276 282 285 289 292 292 294 282 276 275 278 278 279 280 280 280 279 278 278 277 277 276
166 171 170 167 165 167 168 172 173 179 183 188 206 223 238 259 275 281 280 289 296 294 291 292 295 297 300 301 291 286 286 290 293 292 293 295 296 295 291 286 281 280 281
166 169 168 167 166 165 168 173 177 179 184 203 211 233 252 261 270 277 287 292 300 300 293 288 288 292 296 295 300 300 300 300 300 301 303 305 305 301 299 296 290 280 276
155 161 162 162 165 166 172 176 175 182 190 202 218 244 257 271 277 276 276 277 279 279 279 282 286 292 292 291 295 299 302 302 303 307 311 315 317 318 319 317 313 311 295
161 164 169 175 174 175 177 172 175 182 189 209 235 249 267 272 271 264 266 269 272 277 283 287 287 289 298 305 305 305 310 313 314 316 319 322 324 325 325 324 323 317 309
171 179 178 175 174 174 177 179 184 191 206 225 237 249 257 267 272 277 276 274 275 281 288 292 298 304 306 305 306 305 308 312 314 316 321 324 327 327 327 327 326 321 318
176 176 176 173 175 179 179 182 189 198 211 222 233 245 264 286 294 290 284 289 292 292 296 298 301 301 303 306 309 311 314 316 316 320 323 323 324 325 327 328 329 326 313
179 181 178 179 183 184 185 184 190 200 210 221 233 260 288 296 291 287 304 306 301 302 299 297 291 291 298 300 308 311 313 316 320 324 328 331 334 335 335 334 335 330 323
181 183 182 184 185 184 185 188 195 196 200 214 233 265 285 303 305 258 290 292 286 290 299 297 292 293 294 303 306 313 323 324 325 328 331 339 342 341 339 339 336 338 336
191 188 187 187 181 181 184 187 186 192 203 209 224 259 292 293 315 330 323 306 301 294 282 281 287 291 302 305 307 313 322 326 322 330 340 334 341 343 336 340 333 344 347
183 185 185 184 181 183 189 191 188 196 215 230 245 267 277 269 249 239 284 293 293 265 269 275 289 308 315 313 314 313 315 318 322 329 332 337 341 341 345 344 346 346 11
184 183 181 181 182 184 186 184 189 202 216 223 229 242 263 285 255 244 264 274 274 270 266 260 279 291 303 320 316 305 303 308 315 319 330 336 344 351 352 356 4 22 25
178 179 177 177 179 182 183 189 200 210 204 214 221 229 250 290 271 251 244 257 261 268 266 262 283 295 297 305 310 305 296 298 306 315 321 326 340 0 5 13 23 28 31
172 176 175 174 179 184 192 199 211 199 201 214 216 224 241 274 290 261 236 242 251 257 265 262 270 284 291 291 297 300 294 290 300 291 298 315 335 356 5 15 30 39 35
167 169 170 174 180 190 201 209 205 203 205 213 211 220 232 262 281 263 249 241 243 246 255 256 265 275 280 285 284 296 289 279 284 272 275 295 311 332 337 353 20 46 61
164 169 172 174 179 185 192 192 199 202 208 210 215 217 234 260 287 276 255 241 246 256 252 258 262 265 273 278 273 282 283 269 262 241 259 267 280 289 300 340 359 34 55
160 162 163 169 173 175 178 185 192 196 201 207 215 228 246 259 279 297 271 250 235 244 251 252 258 266 265 263 262 273 270 251 243 235 239 255 263 260 277 306 313 340 2